PLEIADES NEO 4

Last updated on Mon Sep 07 2026 00:02:46 GMT+0000 (Coordinated Universal Time)

1 49070U 21073E 26249.59599472 .00000115 00000+0 21203-4 0 9994 2 49070 97.8945 323.1881 0001523 87.3072 272.8315 14.81674101273427
UTC large
Height (km)
Speed (km/s)
/
Latitude / Longitude
Inclination (degrees)
Orbital Period (minutes)
Azimuth
Elevation
Range (km)
Doppler Factor

Next 0 passes for location: London (51.5072 / 0.1276)

No passes found over London.
PLEIADES NEO 4